Flag for Canada Weather past 2 weeks in Steinbach, Manitoba, Canada

Now
58 °F

Cool.


Feels Like: 58 °F
Forecast: 55 / 86 °F
Wind: 2 mph from Southwest

Location: Winnipeg The Forks

Current Time: May 26, 2015 at 3:50:36 AM

Latest Report: May 26, 2015 at 3:00 AM


Visibility: N/A

Pressure: 29.74 "Hg

Humidity: 64%

Dew point: 46 °F

Location of SteinbachLocation

Historic Weather in Steinbach — Graph

°F

Steinbach temperature yesterday

Maximum temperature yesterday: 82 °F (at 5:00 PM)
Minimum temperature yesterday: 55 °F (at 4:00 AM)
Average temperature yesterday: 70 °F

Past Weeks' High & Low Weather Summary

 TemperatureHumidityPressure
High82 °F (May 23, 5:00 PM)100% (May 14, 12:00 PM)30.44 "Hg (May 14, 12:00 PM)
Low31 °F (May 18, 9:00 AM)14% (May 22, 5:00 PM)29.70 "Hg (May 25, 6:00 PM)
Average54 °F56%30.06 "Hg
* Reported May 11 2:00 AM — May 26 2:00 AM, Steinbach, Weather by CustomWeather, © 2015

Note: Actual official high and low records may vary slightly from our data, if they occured in-between our weather recording intervals... More about our weather records

Advertising

Steinbach weather history for previous 24 hours

 ConditionsComfort  
Time TempWeatherWind HumidityBarometerVisibility
2:00 AM
Tue, May 26
66 °FMild.2 mph45%29.73 "HgN/A
1:00 AM68 °FMild.3 mph40%29.72 "HgN/A
12:00 AM69 °FMild.5 mph38%29.71 "HgN/A
11:00 PM
Mon, May 25
72 °FMild.5 mph34%29.72 "HgN/A
10:00 PM74 °FMild.3 mph30%29.72 "HgN/A
9:00 PM76 °FMild.2 mph27%29.71 "HgN/A
8:00 PM79 °FPleasantly warm.1 mph24%29.71 "HgN/A
7:00 PM80 °FPleasantly warm.1 mph21%29.71 "HgN/A
6:00 PM82 °FPleasantly warm.3 mph18%29.70 "HgN/A
5:00 PM82 °FPleasantly warm.3 mph18%29.71 "HgN/A
4:00 PM81 °FPleasantly warm.3 mph19%29.72 "HgN/A
3:00 PM80 °FPleasantly warm.3 mph22%29.73 "HgN/A
2:00 PM80 °FPleasantly warm.3 mph21%29.75 "HgN/A
1:00 PM78 °FPleasantly warm.2 mph24%29.76 "HgN/A
12:00 PM76 °FMild.1 mph28%29.78 "HgN/A
11:00 AM72 °FMild.2 mph34%29.79 "HgN/A
10:00 AM69 °FMild.1 mph46%29.80 "HgN/A
9:00 AM65 °FMild.2 mph50%29.80 "HgN/A
8:00 AM60 °FRefreshingly cool.1 mph58%29.81 "HgN/A
7:00 AM57 °FCool.3 mph60%29.82 "HgN/A
6:00 AM59 °FRefreshingly cool.3 mph46%29.82 "HgN/A
5:00 AM57 °FCool.2 mph62%29.82 "HgN/A
4:00 AM55 °FCool.No wind73%29.83 "HgN/A
3:00 AM56 °FCool.No wind73%29.84 "HgN/A
Weather by CustomWeather, © 2015

See weather overviewHow to use our weather pages